Preview of NWS' New Version of Forecast
This preview is not operational and should not be used for support decisions.

Regional Weather Roundup (RWR)

Issued by National Weather Service (NWS)

                            
000
ASUS43 KBIS 251002
RWRND 

NORTH DAKOTA REGIONAL WEATHER ROUNDUP
NATIONAL WEATHER SERVICE BISMARCK ND
500 AM CDT SUN AUG 25 2019

NOTE: "FAIR" INDICATES FEW OR NO CLOUDS BELOW 12,000 FEET WITH NO
SIGNIFICANT WEATHER AND/OR OBSTRUCTIONS TO VISIBILITY.


NDZ001>003-009>011-017-251100-
NORTHWEST NORTH DAKOTA
  
CITY           SKY/WX    TMP DP  RH WIND       PRES   REMARKS
WILLISTON      FAIR      60  57  89 CALM      29.68S                  
MINOT          MOCLDY    66  62  87 SE5       29.71R                  
MINOT AFB      CLOUDY    64  63  95 E10       29.70R                  
$$
 
NDZ018>021-031>035-040>046-251100-
SOUTHWEST NORTH DAKOTA
  
CITY           SKY/WX    TMP DP  RH WIND       PRES   REMARKS
BISMARCK       CLOUDY    64  63  96 SE9       29.76S                  
DICKINSON      FAIR      61  60  97 SW5       29.71S                  
GARRISON         N/A     65  63  93 S16       29.72R                  
HETTINGER ARPT FAIR      57  55  93 S3        29.77R                  
$$
 
NDZ004>008-012>016-024-026-027-054-251100-
NORTHEAST NORTH DAKOTA
  
CITY           SKY/WX    TMP DP  RH WIND       PRES   REMARKS
GRAND FORKS    FAIR      65  54  67 S15G26    29.84S                  
DEVILS LAKE    CLOUDY    65  60  84 S20       29.80R                  
$$
 
NDZ022-023-025-028>030-036>039-047>053-251100-
SOUTHEAST NORTH DAKOTA
  
CITY           SKY/WX    TMP DP  RH WIND       PRES   REMARKS
FARGO          FAIR      63  55  75 S13G23    29.88F                  
JAMESTOWN      CLOUDY    64  60  87 S15       29.81F                  
$$